[[{"header":{"parameterUnit":"m.s-1","parameterCategory":1,"la1":30.2991,"la2":30.254,"lo1":-89.0895,"lo2":-89.0444,"dy":0.0017,"dx":0.0017,"nx":28,"ny":28,"refTime":"2024-10-01T09:00:00:Z","depth":0,"parameterNumber":2,"parameterNumberName":"U-component_of_WINDS"},"data":[0,0,0,0,0,0,0,0,0,0,0,0,0,0,0,0,0,0,0,0,0,0,0,0,0,0,0,0,0,0,0,0,0,0,0,0,0,0,0,0,0,0,0,0,0,0,0,0,0,0,0,0,0,0,0,0,0,0,0.3388,0.339,0,0.3499,0.35,0.3502,0.3551,0.355,0.355,0.355,0.3665,0.3668,0.3671,0,0,0,0,0,0,0,0,0,0,0,0,0,0.3219,0.3221,0.3388,0.339,0.3391,0.3499,0.35,0.3502,0.3551,0.355,0.355,0.355,0.3664,0.3668,0.3671,0,0,0,0,0,0,0,0,0,0,0,0,0,0.3307,0.3222,0.3388,0.3428,0.3433,0.3498,0.35,0.3502,0.3551,0.355,0.355,0.355,0.3663,0.3667,0.3672,0.3706,0,0,0.3687,0.3689,0,0,0,0,0,0,0,0,0.3302,0.3313,0.3421,0.3426,0.3431,0.3511,0.3483,0.3571,0.3551,0.3506,0.355,0.355,0.3614,0.3623,0.3644,0.3711,0.3716,0.3687,0.369,0.3692,0.3693,0,0,0,0,0,0,0,0.3296,0.3309,0.3432,0.3422,0.3429,0.3441,0.3453,0.35,0.356,0.351,0.3514,0.3526,0.3617,0.3639,0.3647,0.3718,0.3687,0.3691,0.3694,0.3696,0.3816,0.3817,0,0,0,0,0,0,0.3283,0.3303,0.3429,0.3435,0.3365,0.3444,0.3458,0.3485,0.356,0.3571,0.3526,0.3528,0.3631,0.3641,0.3651,0.3695,0.3692,0.3696,0.3699,0.3816,0.3816,0.3817,0,0,0,0,0,0,0.3279,0.3294,0.3424,0.337,0.3388,0.3447,0.3478,0.3488,0.351,0.3572,0.3583,0.3538,0.3631,0.3644,0.3691,0.3699,0.3699,0.3703,0.3816,0.3816,0.3817,0.3782,0,0,0,0,0,0,0.3274,0.3292,0.3306,0.337,0.3391,0.3463,0.3478,0.349,0.3518,0.3522,0.3586,0.3596,0.3632,0.3684,0.3696,0.3706,0.3707,0.3815,0.3816,0.3816,0.3783,0.3781,0.378,0,0,0,0,0,0.3268,0.3293,0.3306,0.3321,0.3409,0.3463,0.3475,0.3515,0.3519,0.3533,0.3572,0.3594,0.3696,0.3688,0.3702,0.3714,0.3815,0.3816,0.3816,0.3783,0.3782,0.378,0,0,0,0,0,0,0.3229,0.3302,0.3318,0.3365,0.3407,0.3471,0.3491,0.3512,0.3555,0.3556,0.3605,0.3619,0.3661,0.3692,0.3682,0.3749,0.3757,0.3761,0.3727,0.3726,0.3725,0.3717,0.3711,0,0,0,0,0,0.3226,0.3263,0.3325,0.336,0.338,0.3431,0.3456,0.3483,0.353,0.3548,0.3591,0.3635,0.3676,0.3703,0.3745,0.3787,0.3801,0.3802,0.38,0.3799,0.3801,0.3824,0.3824,0.3819,0.3819,0.3819,0,0,0.322,0.3264,0.3285,0.3353,0.3389,0.3426,0.3446,0.3486,0.3514,0.3554,0.3601,0.3633,0.3685,0.3729,0.3751,0.3757,0.3806,0.38,0.3798,0.3802,0.3825,0.3825,0.3826,0.382,0.3819,0.3819,0,0,0.3227,0.3265,0.3298,0.3333,0.3386,0.342,0.3427,0.3488,0.351,0.3557,0.3588,0.3621,0.3693,0.3728,0.3756,0.3773,0.3795,0.3785,0.3778,0.38,0.38,0.3801,0.3806,0.3807,0.3788,0.3787,0.3787,0,0.3213,0.3271,0.3312,0.3348,0.3377,0.3414,0.3446,0.3478,0.3543,0.3562,0.3567,0.3655,0.3693,0.3745,0.3749,0.377,0.3779,0.3779,0.3797,0.3798,0.3799,0.3804,0.3806,0.3786,0.3786,0.3786,0.3786,0,0.325,0.3289,0.3308,0.3369,0.3399,0.3434,0.3479,0.3505,0.3528,0.3561,0.3607,0.3653,0.3704,0.3718,0.3742,0.3773,0.3774,0.3787,0.3797,0.3797,0.3803,0.3805,0.3784,0.3784,0.3785,0.3785,0,0,0.3238,0.3318,0.3325,0.3352,0.3412,0.3443,0.3478,0.3527,0.3548,0.3591,0.3621,0.3678,0.369,0.3721,0.3749,0.3767,0.3776,0.3778,0.378,0.3776,0.3811,0.38,0.3802,0.3791,0.3791,0.3792,0.3806,0,0.3254,0.3318,0.3355,0.3404,0.344,0.3474,0.3504,0.3544,0.3575,0.3609,0.3643,0.3683,0.3696,0.3714,0.3734,0.3771,0.3784,0.377,0.3819,0.382,0.3804,0.3806,0.3795,0.3807,0.3809,0.3809,0.381,0,0.3281,0.3322,0.3374,0.3428,0.3445,0.3471,0.3518,0.355,0.3596,0.3616,0.3649,0.3676,0.3713,0.3719,0.377,0.376,0.3781,0.3802,0.3804,0.381,0.3815,0.3811,0.3812,0.3813,0.3814,0.3813,0.3813,0,0.3266,0.3334,0.3373,0.3395,0.346,0.3478,0.3505,0.355,0.3576,0.3617,0.3634,0.3678,0.3702,0.3736,0.3773,0.3774,0.382,0.3829,0.3838,0.3837,0.3847,0.3846,0.3851,0.3861,0.3861,0.3861,0.3861,0,0.328,0.331,0.3367,0.3392,0.3426,0.3467,0.35,0.353,0.357,0.36,0.3632,0.366,0.3708,0.3741,0.3771,0.3808,0.3819,0.3836,0.3844,0.3833,0.3831,0.3849,0.3849,0.3861,0.3861,0.3861,0.3861,0,0.3269,0.3309,0.3354,0.341,0.3425,0.3448,0.3496,0.3521,0.3552,0.3589,0.36,0.3649,0.369,0.373,0.3786,0.3805,0.3842,0.3852,0.3826,0.383,0.3836,0.3835,0.3852,0.3856,0.3864,0.3864,0.3864,0,0.3275,0.3299,0.3357,0.338,0.3406,0.3442,0.3468,0.3508,0.3534,0.3586,0.3604,0.3646,0.3683,0.3746,0.3786,0.3827,0.3839,0.3842,0.3846,0.3833,0.3838,0.3836,0.3838,0.3841,0.384,0.384,0.384,0,0.3281,0.3299,0.3335,0.3378,0.3408,0.3444,0.348,0.3497,0.3544,0.3571,0.3612,0.364,0.3695,0.3737,0.3782,0.3811,0.3833,0.3838,0.3842,0.3832,0.3816,0.3824,0.3822,0.3838,0.3838,0.3838,0.3839,0.3839,0.3279,0.3301,0.3345,0.3384,0.3415,0.3448,0.3473,0.3506,0.3541,0.3589,0.361,0.3651,0.3694,0.3757,0.3784,0.3817,0.3823,0.3829,0.3831,0.3831,0.3828,0.381,0.3825,0.3825,0.3825,0.3826,0.3826,0,0.3286,0.3315,0.335,0.34,0.343,0.3447,0.3488,0.3512,0.3547,0.3585,0.3619,0.3665,0.3705,0.3747,0.3789,0.3806,0.3818,0.3816,0.3815,0.3821,0.3821,0.3813,0.3806,0.3806,0.3806,0.3806,0.3806,0.3806,0.3293,0.3331,0.3353,0.3406,0.3435,0.3475,0.3497,0.3527,0.3557,0.3607,0.3639,0.3666,0.3705,0.3749,0.3786,0.3797,0.3811,0.3806,0.382,0.382,0.3821,0.3823,0.3815,0.3809,0.3809,0.3818,0.3818,0.3818]},{"header":{"parameterUnit":"m.s-1","parameterCategory":1,"la1":30.2991,"la2":30.254,"lo1":-89.0895,"lo2":-89.0444,"dy":0.0017,"dx":0.0017,"nx":28,"ny":28,"refTime":"2024-10-01T09:00:00:Z","depth":0,"parameterNumber":3,"parameterNumberName":"V-component_of_WINDS"},"data":[0,0,0,0,0,0,0,0,0,0,0,0,0,0,0,0,0,0,0,0,0,0,0,0,0,0,0,0,0,0,0,0,0,0,0,0,0,0,0,0,0,0,0,0,0,0,0,0,0,0,0,0,0,0,0,0,0,0,1.8863,1.8863,0,1.8868,1.8868,1.8868,1.8839,1.8838,1.8837,1.8836,1.8841,1.8841,1.8842,0,0,0,0,0,0,0,0,0,0,0,0,0,1.8822,1.8823,1.8863,1.8863,1.8863,1.8868,1.8868,1.8868,1.8839,1.8838,1.8837,1.8836,1.884,1.8841,1.8842,0,0,0,0,0,0,0,0,0,0,0,0,0,1.8835,1.8824,1.8863,1.8849,1.8848,1.8868,1.8868,1.8868,1.8839,1.8838,1.8837,1.8836,1.884,1.8841,1.8843,1.8876,0,0,1.8847,1.8847,0,0,0,0,0,0,0,0,1.8834,1.8837,1.8851,1.885,1.8849,1.8852,1.8856,1.8871,1.884,1.8842,1.8836,1.8835,1.8845,1.8846,1.885,1.8876,1.8876,1.8847,1.8848,1.8848,1.8849,0,0,0,0,0,0,0,1.8834,1.8836,1.8865,1.8851,1.885,1.8841,1.8841,1.8858,1.8851,1.8842,1.884,1.8841,1.8844,1.8849,1.885,1.8876,1.8847,1.8848,1.8849,1.8849,1.8925,1.8926,0,0,0,0,0,0,1.8835,1.8836,1.8865,1.8865,1.8838,1.8843,1.8843,1.8852,1.8851,1.8849,1.8842,1.884,1.8847,1.8848,1.885,1.8885,1.8848,1.8849,1.885,1.8924,1.8925,1.8926,0,0,0,0,0,0,1.8834,1.8838,1.8864,1.885,1.8852,1.8845,1.8855,1.8853,1.8857,1.8851,1.8849,1.8848,1.8846,1.8848,1.8868,1.8885,1.885,1.8851,1.8922,1.8924,1.8926,1.8958,0,0,0,0,0,0,1.8833,1.8838,1.8852,1.885,1.8853,1.8885,1.8856,1.8854,1.8859,1.8856,1.8856,1.8854,1.8845,1.8867,1.887,1.8886,1.8852,1.8921,1.8923,1.8925,1.8955,1.896,1.8965,0,0,0,0,0,1.8832,1.8861,1.8853,1.8856,1.8871,1.8886,1.8887,1.8877,1.8861,1.8874,1.8869,1.8854,1.8883,1.8869,1.8872,1.8889,1.892,1.8922,1.8925,1.8953,1.8959,1.8965,0,0,0,0,0,0,1.8866,1.8861,1.8851,1.8882,1.8884,1.8881,1.8897,1.8884,1.8891,1.8888,1.8874,1.8874,1.8896,1.8895,1.888,1.8918,1.8898,1.8902,1.8918,1.8924,1.8929,1.8928,1.8853,0,0,0,0,0,1.8876,1.889,1.8885,1.8912,1.8914,1.8905,1.8911,1.8902,1.8904,1.8905,1.8902,1.8904,1.8912,1.8919,1.8927,1.8955,1.8952,1.8968,1.8973,1.8977,1.8979,1.8989,1.8995,1.8935,1.8935,1.8935,0,0,1.8899,1.8898,1.8908,1.8918,1.892,1.8931,1.8906,1.8922,1.8929,1.8907,1.8926,1.8923,1.8924,1.8947,1.8958,1.8947,1.8995,1.898,1.8984,1.8984,1.8993,1.8998,1.9003,1.8937,1.8937,1.8936,0,0,1.8946,1.8948,1.8968,1.8969,1.8971,1.8964,1.8969,1.8967,1.8964,1.8982,1.8965,1.8974,1.899,1.899,1.8992,1.9034,1.902,1.9038,1.9062,1.9072,1.9077,1.9081,1.9092,1.9097,1.9041,1.9041,1.9041,0,1.8973,1.8992,1.8981,1.8995,1.8999,1.8979,1.8997,1.8999,1.9003,1.9005,1.8993,1.9011,1.901,1.9031,1.9041,1.9045,1.9047,1.9037,1.9077,1.9081,1.9085,1.9095,1.91,1.9042,1.9042,1.9042,1.9042,0,1.9024,1.9037,1.9053,1.9055,1.9061,1.9078,1.9067,1.9074,1.9064,1.9058,1.9074,1.9072,1.9077,1.9082,1.9074,1.91,1.9093,1.908,1.9059,1.9093,1.9102,1.9106,1.9045,1.9044,1.9044,1.9043,0,0,1.9092,1.9086,1.9092,1.9091,1.9089,1.9098,1.9113,1.9118,1.9122,1.9125,1.9134,1.9147,1.9133,1.9136,1.9126,1.9136,1.9164,1.912,1.912,1.9126,1.9189,1.9197,1.9202,1.9155,1.9156,1.9157,1.9188,0,1.9134,1.9159,1.9147,1.9172,1.9182,1.9161,1.9173,1.9173,1.9167,1.9173,1.9166,1.9174,1.9157,1.9158,1.9166,1.9159,1.9176,1.9157,1.9161,1.9161,1.9159,1.9208,1.9218,1.9247,1.9192,1.9193,1.9193,0,1.9187,1.919,1.9216,1.9209,1.9212,1.9224,1.9224,1.9232,1.9229,1.9224,1.9225,1.9212,1.9223,1.9203,1.9217,1.9204,1.9205,1.9201,1.9202,1.92,1.9178,1.9204,1.9257,1.926,1.92,1.9199,1.9199,0,1.9229,1.924,1.9256,1.9256,1.925,1.9257,1.9254,1.9251,1.9253,1.9254,1.9255,1.9257,1.9258,1.9259,1.9246,1.9234,1.926,1.924,1.9253,1.9253,1.9258,1.9258,1.9309,1.9264,1.9264,1.9263,1.9263,0,1.9275,1.9291,1.9274,1.9283,1.9299,1.9285,1.93,1.9295,1.9292,1.9298,1.9282,1.9288,1.9272,1.9276,1.9266,1.9276,1.9277,1.9271,1.9268,1.9271,1.9271,1.927,1.9267,1.9265,1.9264,1.9264,1.9264,0,1.9324,1.9314,1.9329,1.932,1.9318,1.933,1.9322,1.9329,1.9322,1.933,1.9331,1.9318,1.9322,1.9309,1.9311,1.9304,1.9318,1.9313,1.9319,1.9316,1.9329,1.9327,1.9379,1.9383,1.9338,1.9338,1.9339,0,1.9353,1.9364,1.9356,1.9359,1.9357,1.9363,1.9364,1.935,1.9352,1.9348,1.9355,1.9357,1.9357,1.9363,1.9353,1.9354,1.9346,1.9364,1.9346,1.9348,1.9342,1.9341,1.934,1.9367,1.9368,1.9369,1.9369,0,1.9403,1.9397,1.94,1.9401,1.9403,1.9403,1.9402,1.9405,1.9389,1.9392,1.9395,1.9395,1.9396,1.9397,1.9394,1.939,1.9376,1.9375,1.9377,1.938,1.9381,1.9377,1.9326,1.9373,1.9373,1.9373,1.9372,1.9372,1.944,1.9448,1.9442,1.9445,1.9443,1.9441,1.9446,1.9439,1.9441,1.944,1.9432,1.9435,1.9429,1.9424,1.9421,1.9423,1.9414,1.9418,1.9419,1.942,1.942,1.9383,1.9422,1.9422,1.9422,1.9422,1.9422,0,1.9487,1.9482,1.9485,1.9483,1.9484,1.9472,1.9469,1.9471,1.9474,1.947,1.947,1.9472,1.9472,1.9462,1.946,1.9463,1.9456,1.9463,1.9461,1.946,1.943,1.9426,1.9468,1.9468,1.9468,1.9468,1.9468,1.9468,1.9511,1.9521,1.9514,1.9522,1.9517,1.952,1.9519,1.9516,1.9513,1.9515,1.9515,1.9509,1.9501,1.9498,1.9497,1.9493,1.9492,1.95,1.9495,1.9467,1.9462,1.9458,1.9454,1.9501,1.9501,1.9524,1.9524,1.9524]}]]